Location: Unspecified
(0.0000°N, 0.0000°E)
Time: 04:52:49
(UTC+02:00)

NOAA 12 - Visible Passes

Search period start: 28 July 2016 00:00
Search period end: 07 August 2016 00:00
Orbit: 795 x 816 km, 98.6° (Epoch: 27 July)

Date Brightness Start Highest point End Pass type
(mag) Time Alt. Az. Time Alt. Az. Time Alt. Az.
28 Jul 4.1 20:57:24 10° SSE 21:02:41 64° ENE 21:07:55 10° N visible
29 Jul 4.9 20:33:05 10° SE 20:37:48 32° ENE 20:42:27 10° NNE visible
29 Jul 6.7 22:14:04 10° SW 22:17:17 16° WSW 22:20:30 10° WNW visible
30 Jul 5.7 21:47:44 10° SSW 21:52:25 32° WSW 21:57:06 10° NW visible
31 Jul 4.5 21:22:16 10° S 21:27:33 64° WSW 21:32:47 10° NNW visible
01 Aug 4.1 20:57:23 10° SSE 21:02:40 64° ENE 21:07:53 10° N visible
02 Aug 4.9 20:33:04 10° SE 20:37:46 32° ENE 20:42:25 10° NNE visible
02 Aug 6.7 22:14:04 10° SW 22:17:16 16° WSW 22:20:27 10° WNW visible
03 Aug 5.7 21:47:43 10° SSW 21:52:24 32° WSW 21:57:04 10° NW visible
04 Aug 4.5 21:22:15 10° S 21:27:32 64° WSW 21:32:45 10° NNW visible
05 Aug 4.1 20:57:22 10° SSE 21:02:38 65° ENE 21:07:51 10° N visible
06 Aug 4.9 20:33:03 10° SE 20:37:44 32° ENE 20:42:24 10° NNE visible
06 Aug 6.7 22:14:03 10° SW 22:17:14 16° WSW 22:20:24 10° WNW visible
